[[{"header":{"parameterUnit":"m.s-1","parameterCategory":1,"la1":30.2991,"la2":30.254,"lo1":-89.0895,"lo2":-89.0444,"dy":0.0017,"dx":0.0017,"nx":28,"ny":28,"refTime":"2023-09-16T09:00:00:Z","depth":0,"parameterNumber":2,"parameterNumberName":"U-component_of_WINDS"},"data":[0,0,0,0,0,0,0,0,0,0,0,0,0,0,0,0,0,0,0,0,0,0,0,0,0,0,0,0,0,0,0,0,0,0,0,0,0,0,0,0,0,0,0,0,0,0,0,0,0,0,0,0,0,0,0,0,0,0,0.5809,0.581,0,0.5896,0.5897,0.5898,0.5911,0.591,0.591,0.5909,0.6002,0.6006,0.6009,0,0,0,0,0,0,0,0,0,0,0,0,0,0.5658,0.5661,0.5809,0.581,0.5811,0.5896,0.5897,0.5898,0.5911,0.591,0.591,0.5909,0.6001,0.6005,0.6009,0,0,0,0,0,0,0,0,0,0,0,0,0,0.5732,0.5662,0.5809,0.5828,0.583,0.5895,0.5897,0.5898,0.5912,0.591,0.5909,0.5908,0.6,0.6005,0.601,0.6063,0,0,0.6024,0.6026,0,0,0,0,0,0,0,0,0.5728,0.5738,0.5824,0.5827,0.583,0.5891,0.5878,0.5954,0.5912,0.5881,0.5909,0.5908,0.5967,0.5974,0.5993,0.6067,0.6071,0.6025,0.6028,0.603,0.6031,0,0,0,0,0,0,0,0.5723,0.5734,0.5843,0.5825,0.5829,0.5833,0.5842,0.5892,0.593,0.5884,0.5885,0.5895,0.5968,0.5988,0.5995,0.6073,0.6025,0.6029,0.6032,0.6034,0.6194,0.6195,0,0,0,0,0,0,0.5714,0.573,0.5841,0.5846,0.5775,0.5837,0.5847,0.5873,0.5929,0.5936,0.5895,0.5895,0.5981,0.599,0.5999,0.6064,0.603,0.6034,0.6037,0.6192,0.6194,0.6195,0,0,0,0,0,0,0.571,0.5723,0.5837,0.5788,0.5803,0.5841,0.5869,0.5875,0.5896,0.5938,0.5945,0.5909,0.598,0.5992,0.6046,0.6068,0.6036,0.6041,0.6191,0.6193,0.6195,0.6196,0,0,0,0,0,0,0.5706,0.5722,0.5742,0.5788,0.5805,0.5882,0.5871,0.5878,0.5903,0.5903,0.5953,0.596,0.598,0.6039,0.6051,0.6074,0.6044,0.6189,0.6192,0.6194,0.6194,0.6198,0.6201,0,0,0,0,0,0.5701,0.574,0.5743,0.5756,0.5831,0.5883,0.5893,0.5914,0.5905,0.5926,0.5953,0.5958,0.6063,0.6044,0.6058,0.6083,0.6188,0.6191,0.6194,0.6193,0.6197,0.6201,0,0,0,0,0,0,0.5697,0.5746,0.575,0.5806,0.584,0.5885,0.5912,0.5919,0.5957,0.5956,0.5982,0.5993,0.6046,0.607,0.6048,0.6137,0.6125,0.6131,0.6119,0.6124,0.6127,0.612,0.6048,0,0,0,0,0,0.5702,0.5739,0.5781,0.5826,0.5843,0.5874,0.5898,0.5911,0.5949,0.5964,0.5995,0.6032,0.6073,0.61,0.614,0.6197,0.6208,0.6221,0.6224,0.6227,0.6232,0.6263,0.6269,0.6206,0.6205,0.6205,0,0,0.5714,0.5746,0.5768,0.5826,0.5854,0.5893,0.5887,0.5928,0.5958,0.5971,0.6023,0.6047,0.609,0.6145,0.6172,0.6167,0.6252,0.6231,0.6232,0.6236,0.6267,0.6273,0.6278,0.6208,0.6207,0.6207,0,0,0.5756,0.5783,0.5823,0.5851,0.5893,0.5914,0.5923,0.5968,0.5983,0.6036,0.6046,0.6082,0.6153,0.6182,0.6207,0.6258,0.6265,0.6271,0.6289,0.6319,0.6324,0.6328,0.6347,0.6353,0.6276,0.6276,0.6276,0,0.5766,0.5824,0.5844,0.5884,0.591,0.5921,0.5962,0.5989,0.6042,0.606,0.6053,0.6141,0.6171,0.6234,0.6246,0.6265,0.6277,0.6266,0.6321,0.6326,0.6331,0.6348,0.6355,0.6276,0.6276,0.6276,0.6276,0,0.5834,0.5873,0.5901,0.595,0.5979,0.602,0.6047,0.6073,0.6084,0.6105,0.6158,0.6194,0.6242,0.6258,0.6269,0.6322,0.6317,0.6316,0.6305,0.6337,0.6354,0.6361,0.6277,0.6277,0.6276,0.6276,0,0,0.5876,0.5935,0.5945,0.5967,0.6014,0.6045,0.6087,0.6131,0.6153,0.619,0.6225,0.6284,0.6282,0.631,0.6325,0.6352,0.6389,0.6347,0.6348,0.6353,0.6449,0.645,0.6457,0.6394,0.6395,0.6396,0.6445,0,0.5923,0.5995,0.6014,0.6076,0.6113,0.6124,0.616,0.6193,0.6214,0.6249,0.6273,0.6314,0.6309,0.6326,0.6352,0.6379,0.6409,0.6376,0.6428,0.6429,0.6416,0.6466,0.6467,0.6512,0.6452,0.6453,0.6454,0,0.5987,0.6023,0.6088,0.6129,0.6145,0.6177,0.6219,0.6252,0.629,0.6303,0.6333,0.6345,0.639,0.6375,0.6437,0.6413,0.6436,0.6452,0.6454,0.646,0.6444,0.6473,0.6526,0.6533,0.6465,0.6464,0.6463,0,0.6011,0.6076,0.6123,0.6142,0.6191,0.6213,0.6234,0.6271,0.6296,0.6333,0.635,0.6392,0.6415,0.6448,0.6471,0.6459,0.6531,0.6519,0.6543,0.6543,0.6558,0.6557,0.6616,0.6573,0.6573,0.6572,0.6572,0,0.6061,0.6101,0.6134,0.6163,0.6208,0.6229,0.6273,0.6295,0.6327,0.6361,0.6374,0.6406,0.6435,0.6471,0.6489,0.6537,0.6548,0.656,0.6565,0.6559,0.6557,0.6574,0.6571,0.6574,0.6574,0.6574,0.6573,0,0.6096,0.612,0.6172,0.6213,0.6224,0.6255,0.6291,0.632,0.6341,0.6384,0.6395,0.6428,0.6471,0.6497,0.6552,0.6565,0.6617,0.6621,0.6604,0.6606,0.6629,0.6626,0.6701,0.6712,0.6661,0.6662,0.6662,0,0.6126,0.6156,0.6201,0.6223,0.6245,0.6282,0.6307,0.633,0.6356,0.64,0.6424,0.6467,0.6503,0.6571,0.6601,0.6642,0.6647,0.667,0.6653,0.6646,0.6647,0.6645,0.6648,0.6673,0.6673,0.6674,0.6674,0,0.6177,0.6187,0.6223,0.6262,0.6292,0.6324,0.6357,0.6375,0.6403,0.6432,0.6475,0.6502,0.6557,0.66,0.6644,0.6668,0.6676,0.6679,0.6687,0.6681,0.667,0.6676,0.6611,0.6677,0.6677,0.6677,0.6676,0.6676,0.621,0.6237,0.6272,0.6311,0.6338,0.6367,0.6396,0.642,0.6456,0.6501,0.6513,0.6558,0.6594,0.6654,0.6678,0.6714,0.6711,0.6722,0.6725,0.6728,0.6728,0.6664,0.6722,0.6722,0.6722,0.6722,0.6722,0,0.6262,0.6284,0.632,0.6364,0.6395,0.6398,0.6434,0.646,0.6499,0.6531,0.6566,0.6615,0.6656,0.6688,0.6731,0.6753,0.6758,0.6764,0.6762,0.6768,0.6729,0.6717,0.6759,0.6759,0.6759,0.6759,0.6759,0.6759,0.6292,0.6338,0.6352,0.6411,0.6434,0.6477,0.6497,0.6524,0.6551,0.6604,0.6638,0.6658,0.6691,0.6736,0.6774,0.6782,0.6797,0.6802,0.6811,0.6775,0.677,0.6767,0.6756,0.6805,0.6805,0.6847,0.6847,0.6848]},{"header":{"parameterUnit":"m.s-1","parameterCategory":1,"la1":30.2991,"la2":30.254,"lo1":-89.0895,"lo2":-89.0444,"dy":0.0017,"dx":0.0017,"nx":28,"ny":28,"refTime":"2023-09-16T09:00:00:Z","depth":0,"parameterNumber":3,"parameterNumberName":"V-component_of_WINDS"},"data":[0,0,0,0,0,0,0,0,0,0,0,0,0,0,0,0,0,0,0,0,0,0,0,0,0,0,0,0,0,0,0,0,0,0,0,0,0,0,0,0,0,0,0,0,0,0,0,0,0,0,0,0,0,0,0,0,0,0,3.5148,3.5149,0,3.5196,3.5197,3.5198,3.5225,3.5225,3.5225,3.5225,3.527,3.5271,3.5272,0,0,0,0,0,0,0,0,0,0,0,0,0,3.5072,3.5073,3.5148,3.5149,3.5149,3.5196,3.5197,3.5198,3.5225,3.5225,3.5225,3.5225,3.527,3.5271,3.5272,0,0,0,0,0,0,0,0,0,0,0,0,0,3.5111,3.5073,3.5148,3.5169,3.5171,3.5196,3.5197,3.5198,3.5225,3.5225,3.5225,3.5225,3.5269,3.5271,3.5272,3.528,0,0,3.5277,3.5278,0,0,0,0,0,0,0,0,3.5109,3.5114,3.5165,3.5167,3.517,3.5205,3.5187,3.5225,3.5225,3.5204,3.5225,3.5225,3.5248,3.5251,3.526,3.5282,3.5284,3.5278,3.5279,3.5279,3.528,0,0,0,0,0,0,0,3.5106,3.5112,3.5167,3.5166,3.5169,3.5173,3.5179,3.5194,3.5224,3.5206,3.5208,3.5214,3.5249,3.5258,3.5261,3.5284,3.5278,3.5279,3.528,3.5281,3.5309,3.5309,0,0,0,0,0,0,3.5101,3.5109,3.5166,3.5169,3.5139,3.5174,3.5181,3.5193,3.5224,3.5229,3.5214,3.5215,3.5255,3.5259,3.5263,3.5271,3.5279,3.5281,3.5282,3.531,3.5309,3.5309,0,0,0,0,0,0,3.5099,3.5105,3.5164,3.5139,3.5147,3.5175,3.5189,3.5194,3.5203,3.523,3.5235,3.5218,3.5256,3.526,3.5274,3.5273,3.5282,3.5283,3.531,3.531,3.5309,3.5288,0,0,0,0,0,0,3.5097,3.5105,3.511,3.5139,3.5148,3.5177,3.5189,3.5195,3.5207,3.5209,3.5235,3.524,3.5256,3.5272,3.5276,3.5275,3.5284,3.531,3.531,3.5309,3.5289,3.5287,3.5285,0,0,0,0,0,3.5094,3.5102,3.511,3.5117,3.5156,3.5177,3.5182,3.5202,3.5207,3.521,3.5227,3.5239,3.5272,3.5273,3.5278,3.5277,3.531,3.531,3.5309,3.5289,3.5287,3.5285,0,0,0,0,0,0,3.5071,3.5106,3.5116,3.5134,3.5152,3.5181,3.5187,3.5199,3.5215,3.5216,3.5239,3.5244,3.5255,3.5268,3.5268,3.5284,3.5292,3.5293,3.5275,3.5273,3.5271,3.5268,3.5286,0,0,0,0,0,3.5068,3.5084,3.5113,3.5126,3.5135,3.5159,3.5169,3.5183,3.5202,3.5209,3.5227,3.5243,3.5257,3.5266,3.528,3.529,3.5294,3.5292,3.529,3.5288,3.5288,3.529,3.5289,3.5307,3.5307,3.5307,0,0,3.5062,3.5083,3.5092,3.5122,3.5138,3.5151,3.5166,3.518,3.5189,3.5211,3.5225,3.5238,3.5258,3.5269,3.5275,3.5279,3.5284,3.5288,3.5286,3.5287,3.529,3.5288,3.5286,3.5307,3.5307,3.5307,0,0,3.5058,3.5077,3.5088,3.5103,3.5127,3.5142,3.5144,3.5171,3.5181,3.5195,3.5211,3.5221,3.5245,3.5257,3.5267,3.5262,3.5273,3.5266,3.5256,3.5258,3.5257,3.5255,3.5251,3.525,3.5266,3.5266,3.5266,0,3.5048,3.5071,3.5092,3.5105,3.5116,3.5136,3.5146,3.5159,3.5185,3.5191,3.5196,3.5225,3.5239,3.5252,3.525,3.5258,3.5259,3.5263,3.5255,3.5254,3.5253,3.525,3.5248,3.5265,3.5265,3.5265,3.5265,0,3.5055,3.507,3.5076,3.5101,3.5112,3.5124,3.5144,3.5153,3.5164,3.5177,3.5189,3.5208,3.5224,3.5228,3.524,3.5241,3.5243,3.5252,3.5261,3.525,3.5247,3.5246,3.5263,3.5264,3.5264,3.5264,0,0,3.5041,3.5075,3.5076,3.5086,3.5111,3.5122,3.5132,3.5149,3.5154,3.5171,3.5178,3.5196,3.5203,3.5213,3.5226,3.5228,3.5219,3.5235,3.5236,3.523,3.5218,3.5211,3.5209,3.5226,3.5226,3.5226,3.5216,0,3.5039,3.506,3.5078,3.5091,3.5103,3.512,3.5128,3.5142,3.5154,3.5164,3.5177,3.5188,3.5198,3.5204,3.5207,3.522,3.5217,3.5221,3.523,3.5231,3.5224,3.5208,3.5201,3.519,3.5215,3.5215,3.5214,0,3.5041,3.5056,3.507,3.5091,3.5096,3.5104,3.5118,3.5128,3.5144,3.5152,3.5161,3.5174,3.5182,3.5189,3.5199,3.5201,3.5206,3.5212,3.5212,3.5213,3.5221,3.5206,3.5188,3.5185,3.5213,3.5213,3.5213,0,3.5026,3.505,3.5061,3.5069,3.5093,3.5097,3.5107,3.5123,3.513,3.5142,3.5147,3.5159,3.5166,3.5174,3.5188,3.5193,3.5194,3.5204,3.5199,3.5199,3.5199,3.5199,3.5179,3.5204,3.5204,3.5204,3.5204,0,3.5022,3.503,3.5054,3.5061,3.5068,3.5086,3.5092,3.5103,3.5116,3.5123,3.5138,3.5143,3.5162,3.5169,3.518,3.5184,3.5187,3.5192,3.5195,3.519,3.5189,3.5193,3.5194,3.5203,3.5204,3.5204,3.5204,0,3.5008,3.5025,3.5037,3.5058,3.5063,3.5067,3.5084,3.5089,3.5101,3.5109,3.5111,3.5129,3.5138,3.5152,3.5165,3.5172,3.5173,3.5179,3.5168,3.517,3.5163,3.5163,3.5145,3.5142,3.5169,3.5169,3.5169,0,3.5004,3.501,3.5031,3.5036,3.5046,3.5055,3.5063,3.5079,3.5086,3.5101,3.5103,3.5113,3.5122,3.5133,3.5146,3.5155,3.5159,3.5152,3.5161,3.5155,3.5157,3.5156,3.5155,3.515,3.515,3.5149,3.5149,0,3.4995,3.5001,3.5012,3.5024,3.5032,3.5043,3.5054,3.5057,3.5075,3.5081,3.509,3.5096,3.5108,3.5116,3.5126,3.5134,3.5143,3.5146,3.5145,3.514,3.5133,3.5134,3.5161,3.5147,3.5147,3.5147,3.5147,3.5147,3.4984,3.4989,3.5003,3.5013,3.5022,3.5031,3.5036,3.5047,3.5055,3.5066,3.5075,3.5082,3.5092,3.5107,3.5113,3.5118,3.5122,3.5122,3.5121,3.512,3.5117,3.5133,3.512,3.512,3.512,3.512,3.512,0,3.4974,3.4982,3.4991,3.5005,3.5012,3.5021,3.5032,3.5036,3.5043,3.5052,3.506,3.5067,3.5074,3.5086,3.5093,3.5094,3.5098,3.5095,3.5095,3.5096,3.5114,3.5113,3.5091,3.5091,3.5091,3.5091,3.5091,3.5091,3.4969,3.4976,3.4983,3.4993,3.5002,3.5009,3.5014,3.5021,3.5029,3.5037,3.5043,3.505,3.506,3.5067,3.5072,3.5075,3.5076,3.5072,3.5076,3.5092,3.5095,3.5097,3.5097,3.5072,3.5072,3.5057,3.5057,3.5057]}]]